User: anonymous   Login
Location: Unspecified
(0.0000°N, 0.0000°E)
Time: 20:35:47
(UTC+00:00)
Language:

Transit VE-5 - Orbit

View from above orbital plane
View from above orbital plane
View from above satellite
View from above satellite

Ground track
Ground track

The orbit data is extracted from the following two-line orbital elements,

1   959U 64083C   18264.89614108 +.00000051 +00000-0 +53313-4 0  9997
2   959 090.0004 187.5535 0042417 001.2568 040.0408 13.61563866665662
Epoch (UTC): 21 September 2018 21:30:26
Eccentricity: 0.0042417
inclination: 90.0004°
perigee height: 998 km
apogee height: 1061 km
right ascension of ascending node: 187.5535°
argument of perigee: 1.2568°
revolutions per day: 13.61563866
mean anomaly at epoch: 40.0408°
orbit number at epoch: 66566

The dashed part of the orbit path shows where the satellite is in the earth's shadow,  

DLR